Location: Coed Ely
(51.5661°N, 3.4150°W)
Time: 20:11:10
(UTC+00:00)

SJ 16-02 - Pass Details

Date: 28 January 2021
Orbit: 606 x 615 km, 75.0° (Epoch: 27 February)

Event Time Altitude Azimuth Distance (km) Brightness Sun altitude
Rises 19:10:22 0° 248° (WSW) 2,869 6.1 -20.7°
Reaches altitude 10° 19:13:14 10° 268° (W) 1,967 5.1 -21.2°
Maximum altitude 19:16:16 18° 312° (NW) 1,512 3.9 -21.6°
Drops below altitude 10° 19:19:19 10° 356° (N) 1,973 4.0 -22.1°
Enters shadow 19:20:49 - 8° (N) 2,415 4.3 -22.3°
